Weather History for Jackson, KY

Change the Weather History Date:

Saturday, September 29, 2012

  Actual Average Record
Temperature  
Mean Temperature 62 °F 63 °F  
Max Temperature 69 °F 73 °F 87 °F (1986)
Min Temperature 55 °F 53 °F 41 °F (1984)
Degree Days  
Heating Degree Days 3 4  
Month to date heating degree days 57 45  
Since 1 July heating degree days 57 47  
Cooling Degree Days 0 2  
Month to date cooling degree days 116 142  
Year to date cooling degree days 1294 1120  
Growing Degree Days 12 (Base 50)    
Moisture  
Dew Point 57 °F    
Average Humidity 80    
Maximum Humidity 100    
Minimum Humidity 59    
Precipitation  
Precipitation T in 0.11 in 1.24 in (1987)
Month to date precipitation 6.77 3.34  
Year to date precipitation 40.52 36.89  
Snow  
Snow 0.00 in 0.00 in - ()
Month to date snowfall 0.0 0.0  
Since 1 July snowfall 0.0 0.0  
Since 1 September snowfall 0.0 0.0  
Snow Depth 0.00 in    
Sea Level Pressure  
Sea Level Pressure 30.04 in    
Wind  
Wind Speed 0 mph (NE)    
Max Wind Speed 5 mph    
Max Gust Speed 9 mph    
Visibility 4 miles    
Events Fog , Rain    
T = Trace of Precipitation, MM = Missing Value Source: NWS Daily Summary

Daily Weather History Graph

Daily Weather History Graph

Search for Another Location

Airport:

Trip Planner

Search our weather history database for the weather conditions in past years. The results will help you decide how hot, cold, wet, or windy it might be!

Date:

Astronomy

Sep. 29, 2012 Rise Set
Actual Time 7:27 AM EDT 7:18 PM EDT
Civil Twilight 7:01 AM EDT 7:44 PM EDT
Nautical Twilight 6:30 AM EDT 8:15 PM EDT
Astronomical Twilight 6:00 AM EDT 8:45 PM EDT
Moon 6:51 PM EDT (9/29) 6:57 AM EDT (9/29)
Length of Visible Light 12h 43m
Length of Day
11h 51m
Full, 100% of the Moon is Illuminated
Sep 29
Full
Sep 29
Full
Oct 8
Last Quarter
Oct 15
New
Oct 21
First Quarter

Hourly Weather History & Observations

Time (EDT) Temp. Dew Point Humidity Pressure Visibility Wind Dir Wind Speed Gust Speed Precip Events Conditions
12:06 AM 60.8 °F 60.8 °F 100% 30.08 in 2.0 mi Calm Calm - N/A   Overcast
12:09 AM 60.8 °F 60.8 °F 100% 30.08 in 0.8 mi Calm Calm - N/A   Overcast
12:20 AM 60.8 °F 60.8 °F 100% 30.08 in 1.8 mi Calm Calm - N/A   Overcast
12:22 AM 60.8 °F 60.8 °F 100% 30.08 in 3.0 mi Calm Calm - N/A   Overcast
12:32 AM 60.8 °F 60.8 °F 100% 30.08 in 2.5 mi Calm Calm - N/A   Overcast
12:39 AM 60.8 °F 60.8 °F 100% 30.08 in 4.0 mi Calm Calm - N/A   Overcast
12:42 AM 60.8 °F 60.8 °F 100% 30.07 in 1.5 mi Calm Calm - N/A   Overcast
12:53 AM 61.0 °F 59.0 °F 93% 30.06 in 2.0 mi Calm Calm - N/A   Overcast
1:00 AM 60.8 °F 59.0 °F 94% 30.08 in 5.0 mi Calm Calm - N/A   Overcast
1:19 AM 60.8 °F 60.8 °F 100% 30.08 in 2.0 mi Calm Calm - N/A   Overcast
1:26 AM 60.8 °F 60.8 °F 100% 30.08 in 1.5 mi Calm Calm - N/A   Overcast
1:35 AM 60.8 °F 60.8 °F 100% 30.08 in 0.5 mi Calm Calm - N/A Fog Fog
1:53 AM 60.1 °F 60.1 °F 100% 30.05 in 0.2 mi Calm Calm - N/A Fog Fog
2:53 AM 60.1 °F 59.0 °F 96% 30.04 in 0.2 mi Calm Calm - N/A Fog Fog
3:42 AM 59.0 °F 57.2 °F 94% 30.05 in 1.0 mi Calm Calm - N/A   Mist
3:53 AM 59.0 °F 57.9 °F 96% 30.03 in 1.0 mi Calm Calm - N/A   Mist
4:01 AM 59.0 °F 57.2 °F 94% 30.05 in 0.8 mi Calm Calm - N/A   Mist
4:29 AM 59.0 °F 57.2 °F 94% 30.05 in 1.5 mi Calm Calm - N/A   Overcast
4:43 AM 59.0 °F 57.2 °F 94% 30.04 in 0.5 mi Calm Calm - N/A Fog Fog
4:53 AM 59.0 °F 57.9 °F 96% 30.02 in 0.8 mi Calm Calm - N/A   Mist
5:01 AM 59.0 °F 57.2 °F 94% 30.05 in 1.0 mi Calm Calm - N/A   Mist
5:15 AM 59.0 °F 57.2 °F 94% 30.05 in 2.5 mi Calm Calm - N/A   Overcast
5:22 AM 59.0 °F 57.2 °F 94% 30.05 in 6.0 mi Calm Calm - N/A   Overcast
5:29 AM 59.0 °F 57.2 °F 94% 30.04 in 1.8 mi Calm Calm - N/A   Overcast
5:34 AM 59.0 °F 57.2 °F 94% 30.04 in 0.8 mi Calm Calm - N/A   Mist
5:53 AM 59.0 °F 57.9 °F 96% 30.02 in 1.0 mi Calm Calm - N/A   Mist
6:03 AM 59.0 °F 57.2 °F 94% 30.04 in 2.0 mi East 3.5 mph - N/A   Overcast
6:08 AM 59.0 °F 57.2 °F 94% 30.04 in 1.5 mi Calm Calm - N/A   Overcast
6:17 AM 59.0 °F 57.2 °F 94% 30.04 in 0.5 mi Calm Calm - N/A Fog Fog
6:53 AM 59.0 °F 57.9 °F 96% 30.03 in 0.8 mi Calm Calm - N/A   Mist
7:01 AM 59.0 °F 57.2 °F 94% 30.05 in 1.0 mi Calm Calm - N/A   Mist
7:14 AM 59.0 °F 57.2 °F 94% 30.05 in 0.5 mi Calm Calm - N/A Fog Fog
7:32 AM 59.0 °F 57.2 °F 94% 30.04 in 1.0 mi Calm Calm - N/A   Mist
7:39 AM 57.2 °F 57.2 °F 100% 30.04 in 2.0 mi Calm Calm - N/A   Overcast
7:46 AM 59.0 °F 57.2 °F 94% 30.04 in 1.5 mi Calm Calm - N/A   Overcast
7:53 AM 57.9 °F 57.9 °F 100% 30.03 in 1.5 mi Calm Calm - N/A   Overcast
8:05 AM 59.0 °F 57.2 °F 94% 30.04 in 0.2 mi Calm Calm - N/A Fog Fog
8:53 AM 59.0 °F 57.9 °F 96% 30.04 in 1.0 mi Calm Calm - N/A   Mist
9:04 AM 59.0 °F 57.2 °F 94% 30.05 in 0.8 mi Calm Calm - N/A   Mist
9:16 AM 59.0 °F 57.2 °F 94% 30.05 in 1.5 mi Calm Calm - N/A   Overcast
9:25 AM 59.0 °F 59.0 °F 100% 30.05 in 2.0 mi Calm Calm - N/A   Overcast
9:35 AM 59.0 °F 59.0 °F 100% 30.05 in 3.0 mi Calm Calm - N/A   Overcast
9:53 AM 60.1 °F 59.0 °F 96% 30.04 in 4.0 mi Calm Calm - N/A   Overcast
10:53 AM 60.1 °F 57.9 °F 93% 30.04 in 3.0 mi Calm Calm - 0.00 in Rain Light Rain
10:57 AM 59.0 °F 57.2 °F 94% 30.06 in 1.5 mi Calm Calm - 0.00 in Rain Light Rain
11:07 AM 59.0 °F 57.2 °F 94% 30.06 in 0.5 mi Calm Calm - 0.00 in Fog , Rain Light Rain
11:42 AM 59.0 °F 57.2 °F 94% 30.05 in 1.8 mi Calm Calm - 0.00 in   Overcast
11:47 AM 60.8 °F 59.0 °F 94% 30.05 in 3.0 mi Calm Calm - 0.00 in   Overcast
11:53 AM 60.1 °F 57.0 °F 90% 30.03 in 5.0 mi Calm Calm - 0.00 in   Overcast
12:04 PM 60.8 °F 57.2 °F 88% 30.05 in 8.0 mi Variable 3.5 mph - N/A   Overcast
12:48 PM 64.4 °F 57.2 °F 77% 30.04 in 10.0 mi Calm Calm - N/A   Mostly Cloudy
12:53 PM 64.0 °F 57.0 °F 78% 30.01 in 10.0 mi Calm Calm - N/A   Overcast
1:05 PM 64.4 °F 57.2 °F 77% 30.04 in 10.0 mi Calm Calm - N/A   Overcast
1:53 PM 66.9 °F 57.0 °F 70% 30.00 in 10.0 mi Calm Calm - N/A   Mostly Cloudy
2:13 PM 66.2 °F 55.4 °F 68% 30.01 in 10.0 mi NNW 4.6 mph - N/A   Mostly Cloudy
2:23 PM 64.4 °F 55.4 °F 73% 30.01 in 10.0 mi Calm Calm - N/A   Mostly Cloudy
2:53 PM 68.0 °F 55.0 °F 63% 29.97 in 10.0 mi Calm Calm - N/A   Mostly Cloudy
3:53 PM 66.9 °F 53.1 °F 61% 29.96 in 10.0 mi Calm Calm - N/A   Mostly Cloudy
4:53 PM 68.0 °F 54.0 °F 61% 29.95 in 10.0 mi Calm Calm - N/A   Mostly Cloudy
5:53 PM 66.9 °F 53.1 °F 61% 29.94 in 10.0 mi Calm Calm - N/A   Clear
6:53 PM 62.1 °F 53.1 °F 72% 29.96 in 10.0 mi Calm Calm - N/A   Clear
7:53 PM 59.0 °F 52.0 °F 78% 29.96 in 10.0 mi Calm Calm - N/A   Clear
8:53 PM 60.1 °F 50.0 °F 69% 29.97 in 10.0 mi Calm Calm - N/A   Clear
9:53 PM 59.0 °F 48.9 °F 69% 29.98 in 10.0 mi Calm Calm - N/A   Clear
10:53 PM 55.9 °F 48.0 °F 75% 29.99 in 10.0 mi Calm Calm - N/A   Clear
11:53 PM 55.0 °F 50.0 °F 83% 29.99 in 10.0 mi Calm Calm - N/A   Clear